Regional Weather Roundup
Issued by NWS

Home | Current Version | Previous Version | Graphics & Text | Print | Product List | Glossary On
Versions: 1 2 3 4 5 6 7 8 9 10 11 12 13 14 15 16 17 18 19 20 21 22 23 24 25 26 27
000
ASUS45 KTFX 280010
RWRMT
MONTANA REGIONAL WEATHER ROUNDUP
NATIONAL WEATHER SERVICE GREAT FALLS MT
600 PM MDT WED APR 27 2016

NOTE: "FAIR" INDICATES FEW OR NO CLOUDS BELOW 12000 FEET WITH NO
SIGNIFICANT WEATHER AND/OR OBSTRUCTIONS TO VISIBILITY.

MTZ001>007-043-280100-
WEST OF THE DIVIDE

CITY           SKY/WX    TMP DP  RH WIND       PRES   REMARKS
KALISPELL      SUNNY     58  33  39 NE18      29.91S
MISSOULA       CLOUDY    57  32  38 SE10      29.87F
BUTTE          CLOUDY    43  27  53 N16       29.91F
MULLAN PASS    PTSUNNY   47  36  65 CALM      29.89F
PLAINS           N/A     65  37  35 NE6       29.87
$$

MTZ008-052>055-280100-
SOUTHWEST MONTANA

CITY           SKY/WX    TMP DP  RH WIND       PRES   REMARKS
BOZEMAN        CLOUDY    46  34  62 CALM      29.92S
DILLON         PTSUNNY   50  28  42 NE20      29.87S
ENNIS          CLOUDY    43  30  61 N17       29.94S
THREE FORKS      N/A     48  28  46 N10       29.93S
TWIN BRIDGES     N/A     49  27  42 NW17      29.89S
$$

MTZ009-010-012-014-046-048-049-054-280100-
EAST SLOPES AND CENTRAL MONTANA

CITY           SKY/WX    TMP DP  RH WIND       PRES   REMARKS
CUT BANK       CLOUDY    41  34  76 NE7       30.05S
GREAT FALLS    CLOUDY    38  34  85 NE10      30.03S WCI  31
HELENA         CLOUDY    47  29  49 N14       29.97S
CHOTEAU          N/A     39  36  87 NE10      30.04S
CONRAD           N/A     39  39 100 NE7       30.07R
$$

MTZ011-013-016-021-045-047-050-051-280100-
NORTH CENTRAL MONTANA

CITY           SKY/WX    TMP DP  RH WIND       PRES   REMARKS
HAVRE          LGT RAIN  41  39  93 NE9       30.08S FOG
LEWISTOWN      FLURRIES  36  33  89 N9        30.00S WCI  29
N BAR RANCH    LGT SNOW  32  32 100 N9        30.00S WCI  24
$$

MTZ017>020-022>027-061-062-280100-
NORTHEAST MONTANA

CITY           SKY/WX    TMP DP  RH WIND       PRES   REMARKS
GLASGOW        LGT RAIN  41  38  89 E8        30.06R
JORDAN           N/A     35  34  96 NE8       30.02S WCI  29
SIDNEY         CLOUDY    48  27  43 E6        30.01S
WOLF POINT     CLOUDY    46  37  71 NW6       30.03R
SCOBEY           N/A     50  24  36 NE9       30.03
$$

MTZ028>42-056>058-280100-
SOUTHCENTRAL AND SOUTHEAST MONTANA

CITY           SKY/WX    TMP DP  RH WIND       PRES   REMARKS
BAKER          LGT SNOW  34  31  88 NE10      29.98R FOG     WCI  26
BILLINGS       LGT RAIN  37  34  89 NE12      29.97S WCI  29
LIVINGSTON     LGT RAIN  39  32  76 E18       29.92S WCI  30
MILES CITY     LGT RAIN  36  34  92 NE12      29.98S WCI  28
EKALAKA          N/A     32  30  92 N2        29.93R
LAUREL           N/A     37  30  76 CALM      29.96S
ROUNDUP          N/A     34  30  85 MISG      29.91S
$$

REGIONAL REPORTS...DAKOTAS

CITY           SKY/WX    TMP DP  RH WIND       PRES   REMARKS
WILLISTON      CLOUDY    52  25  35 NE9       30.01S
MINOT          CLOUDY    57  22  25 NE16G23   29.99R
DICKINSON      CLOUDY    38  30  73 NE12      29.93R WCI  30
BEACH            N/A     36  36 100 E6        30.02R WCI  31
CROSBY           N/A     55  21  26 E14       30.04S
TIOGA            N/A     50  23  34 E21       30.04S
WATFORD CITY     N/A     48  28  46 E10       30.00R
BISMARCK       CLOUDY    49  29  46 NE10      29.93R
GRAND FORKS    CLOUDY    54  29  38 NE20      29.97R
FARGO          CLOUDY    56  25  30 E14       29.90R
BUFFALO SD       N/A     33  32  96 N10       29.87R WCI  25
RAPID CITY     LGT SNOW  33  32  96 N21       29.86R FOG     WCI  21
$$

REGIONAL REPORTS...WYOMING/IDAHO/WASHINGTON

CITY           SKY/WX    TMP DP  RH WIND       PRES   REMARKS
GILLETTE       LGT SNOW  34  50 100 NW13      29.89R WCI  25
SHERIDAN       MIX PCPN  36  34  92 NW9       29.94R WCI  29
BUFFALO WY     LGT SNOW  33  30  88 N22       29.91R FOG     WCI  21
CODY           CLOUDY    37  34  87 N13       29.91S WCI  29
YELLOWSTONE LA   N/A     37  24  59 VRB3      29.86F
IDAHO FALLS    PTSUNNY   59  25  27 NE8       29.77F
SALMON         PTSUNNY   63  30  29 SE16G22   29.74S
BOISE          CLOUDY    59  38  45 N13       29.79F
SPOKANE        PTSUNNY   58  41  53 SE7       29.89R
$$

REGIONAL REPORTS...ALBERTA

CITY           SKY/WX    TMP DP  RH WIND       PRES   REMARKS
EDMONTON       MOSUNNY   59  30  33 SE9       30.06S
CALGARY        MOSUNNY   52  32  46 SE15G25   30.06S
LETHBRIDGE     CLOUDY    46  32  57 NE13G33   30.08S
MEDICINE HAT   CLOUDY    46  34  61 E3        30.11S
WATERTON GATE    N/A     43  32  65 NE7         N/A
CARDSTON         N/A     43  34  70 E9          N/A
MILK RIVER       N/A     41  36  81 E12         N/A
ONEFOUR          N/A     39  36  87 E13         N/A  WCI  32
$$

REGIONAL REPORTS...SASKATCHEWAN

CITY           SKY/WX    TMP DP  RH WIND       PRES   REMARKS
SWIFT CURRENT  CLOUDY    50  21  32 E9        30.08S
REGINA         CLOUDY    54  18  24 NE12      30.10S
SASKATOON      MOSUNNY   59  18  20 SE13G18   30.14R
CYPRESS HILLS    N/A     36  28  75 E7          N/A  WCI  30
VAL MARIE        N/A     41  37  87 SE9         N/A
ROCKGLEN         N/A     48  25  40 E5          N/A
$$




USA.gov is the U.S. government's official web portal to all federal, state and local government web resources and services.